K5DLF-13 Weather Reports


Display with metric or nautical units.
time (UTC)temp
F
wind
direction
speed
MPH
gust
MPH
rain 1hr
in
rain 24hr
in
rain mn
in
humidity
%
barometer
mb
20260506173455 83 180 0.0 0.0 0.00 0.00 0.00 87 1007.9
20260506172955 83 180 0.0 0.0 0.00 0.00 0.00 87 1008.0
20260506172455 83 180 0.0 0.0 0.00 0.00 0.00 87 1008.0
20260506171955 83 180 0.0 0.0 0.00 0.00 0.00 87 1008.0
20260506171455 83 180 0.0 0.0 0.00 0.00 0.00 86 1008.0
20260506170955 83 180 0.0 0.0 0.00 0.00 0.00 86 1008.3
20260506170455 83 180 0.0 0.0 0.00 0.00 0.00 89 1008.1
20260506165955 83 180 0.0 0.0 0.00 0.00 0.00 89 1008.1
20260506165455 83 180 0.0 0.0 0.00 0.00 0.00 91 1008.1
20260506164955 82 180 1.0 4.0 0.00 0.00 0.00 90 1008.1
20260506164455 81 180 1.0 4.0 0.00 0.00 0.00 92 1008.2
20260506163955 81 180 1.0 2.0 0.00 0.00 0.00 92 1008.1
20260506163455 80 180 1.0 3.0 0.00 0.00 0.00 92 1008.0
20260506162955 80 180 1.0 4.0 0.00 0.00 0.00 92 1008.0
20260506162455 80 180 0.0 3.0 0.00 0.00 0.00 93 1008.1
20260506161955 80 180 0.0 0.0 0.00 0.00 0.00 93 1008.0
20260506161455 79 180 0.0 0.0 0.00 0.00 0.00 93 1008.0
20260506160955 79 180 0.0 0.0 0.00 0.00 0.00 93 1008.0
20260506160455 79 180 0.0 0.0 0.00 0.00 0.00 93 1008.1
20260506155955 79 180 0.0 0.0 0.00 0.00 0.00 93 1008.1
20260506155455 79 180 0.0 0.0 0.00 0.00 0.00 93 1008.1
20260506154955 79 180 0.0 0.0 0.00 0.00 0.00 93 1007.9
20260506154455 79 180 0.0 0.0 0.00 0.00 0.00 93 1007.7
20260506153955 79 180 0.0 0.0 0.00 0.00 0.00 94 1007.6
20260506153455 79 180 0.0 0.0 0.00 0.00 0.00 94 1007.6
20260506152955 79 180 0.0 0.0 0.00 0.00 0.00 94 1007.6
20260506152455 79 180 0.0 0.0 0.00 0.00 0.00 94 1007.7
20260506151955 79 180 0.0 0.0 0.00 0.00 0.00 94 1007.6
20260506151455 79 180 0.0 0.0 0.00 0.00 0.00 95 1007.4
20260506150955 79 182 0.0 0.0 0.00 0.00 0.00 95 1007.5
20260506150455 79 182 0.0 0.0 0.00 0.00 0.00 95 1007.3
20260506145955 79 182 0.0 0.0 0.00 0.00 0.00 95 1007.2
20260506145455 79 182 0.0 0.0 0.00 0.00 0.00 95 1007.2
20260506144955 78 182 0.0 0.0 0.00 0.00 0.00 96 1007.0
20260506144455 78 182 0.0 0.0 0.00 0.00 0.00 96 1007.0
20260506143955 78 182 0.0 0.0 0.00 0.00 0.00 96 1006.9
20260506143455 78 182 0.0 0.0 0.00 0.00 0.00 96 1006.9
20260506142955 78 182 0.0 0.0 0.00 0.00 0.00 96 1007.1
20260506142455 78 182 0.0 0.0 0.00 0.00 0.00 96 1007.0
20260506141955 78 182 0.0 0.0 0.00 0.00 0.00 96 1007.2
20260506141455 78 182 0.0 0.0 0.00 0.00 0.00 96 1007.3
20260506140955 78 182 0.0 0.0 0.00 0.00 0.00 96 1007.2
20260506140455 78 182 0.0 0.0 0.00 0.00 0.00 96 1007.3
20260506135955 78 182 0.0 0.0 0.00 0.00 0.00 96 1007.3
20260506135455 78 182 0.0 0.0 0.00 0.00 0.00 96 1007.3
20260506134955 78 182 0.0 0.0 0.00 0.00 0.00 96 1007.3
20260506134455 78 182 0.0 0.0 0.00 0.00 0.00 96 1007.2
20260506133955 78 182 0.0 0.0 0.00 0.00 0.00 96 1007.3
20260506133455 77 182 0.0 0.0 0.00 0.00 0.00 96 1007.4
20260506132955 77 182 0.0 0.0 0.00 0.00 0.00 96 1007.3
20260506132455 77 182 0.0 0.0 0.00 0.00 0.00 96 1007.4
20260506131955 77 182 0.0 0.0 0.00 0.00 0.00 96 1007.3
20260506131455 77 182 0.0 0.0 0.00 0.00 0.00 96 1007.4
20260506130955 77 182 0.0 0.0 0.00 0.00 0.00 96 1007.3
20260506130455 77 182 0.0 0.0 0.00 0.00 0.00 96 1007.5
20260506125955 77 182 0.0 0.0 0.00 0.00 0.00 96 1007.4
20260506125455 77 182 0.0 0.0 0.00 0.00 0.00 96 1007.3
20260506124955 77 182 0.0 0.0 0.00 0.00 0.00 96 1007.2
20260506124455 77 182 0.0 0.0 0.00 0.00 0.00 96 1007.1
20260506123955 77 182 0.0 0.0 0.00 0.00 0.00 96 1007.1
20260506123455 77 182 0.0 0.0 0.00 0.00 0.00 96 1007.1
20260506122955 77 182 0.0 0.0 0.00 0.00 0.00 96 1007.1
20260506122455 76 182 0.0 0.0 0.00 0.00 0.00 96 1007.0
20260506121955 76 182 0.0 0.0 0.00 0.00 0.00 96 1007.0
20260506121455 76 182 0.0 0.0 0.00 0.00 0.00 96 1006.9
20260506120955 76 182 0.0 0.0 0.00 0.00 0.00 96 1007.0
20260506120455 76 182 0.0 0.0 0.00 0.00 0.00 96 1006.9
20260506115955 76 182 0.0 0.0 0.00 0.00 0.00 96 1006.7
20260506115455 76 182 0.0 0.0 0.00 0.00 0.00 96 1006.6
20260506114955 76 182 0.0 0.0 0.00 0.00 0.00 96 1006.6
20260506114455 76 182 0.0 1.0 0.00 0.00 0.00 96 1006.5
20260506113955 76 182 0.0 4.0 0.00 0.00 0.00 96 1006.3
20260506113455 76 183 0.0 0.0 0.00 0.00 0.00 96 1006.3
20260506112955 76 183 0.0 0.0 0.00 0.00 0.00 96 1006.3
20260506112455 76 183 0.0 0.0 0.00 0.00 0.00 96 1006.2
20260506111955 76 183 0.0 0.0 0.00 0.00 0.00 96 1006.2
20260506111455 76 183 0.0 0.0 0.00 0.00 0.00 96 1006.2
20260506110955 76 183 0.0 0.0 0.00 0.00 0.00 96 1006.2
20260506110455 76 183 0.0 0.0 0.00 0.00 0.00 95 1006.2
20260506105955 76 183 0.0 0.0 0.00 0.00 0.00 96 1006.1
20260506105455 76 183 0.0 0.0 0.00 0.00 0.00 96 1006.1
20260506104955 76 183 0.0 0.0 0.00 0.00 0.00 95 1006.2
20260506104455 76 183 0.0 0.0 0.00 0.00 0.00 95 1006.1
20260506103955 76 183 0.0 0.0 0.00 0.00 0.00 95 1006.2
20260506103455 76 183 0.0 1.0 0.00 0.00 0.00 95 1006.1
20260506102955 76 183 0.0 1.0 0.00 0.00 0.00 95 1006.2
20260506102455 76 183 0.0 0.0 0.00 0.00 0.00 95 1006.2
20260506101955 76 183 0.0 1.0 0.00 0.00 0.00 95 1006.2
20260506101455 76 183 1.0 2.0 0.00 0.00 0.00 95 1006.0
20260506100955 76 183 1.0 2.0 0.00 0.00 0.00 95 1005.9
20260506100455 76 183 1.0 1.0 0.00 0.00 0.00 95 1005.9
20260506095955 76 183 0.0 2.0 0.00 0.00 0.00 95 1005.9
20260506095455 76 183 0.0 4.0 0.00 0.00 0.00 95 1005.7
20260506094955 76 184 0.0 2.0 0.00 0.00 0.00 95 1005.8
20260506094455 76 184 0.0 3.0 0.00 0.00 0.00 95 1005.7
20260506093956 76 184 0.0 0.0 0.00 0.00 0.00 95 1005.8
20260506093455 76 184 0.0 0.0 0.00 0.00 0.00 95 1005.9
20260506092956 76 184 0.0 0.0 0.00 0.00 0.00 95 1006.0
20260506092456 76 184 0.0 0.0 0.00 0.00 0.00 95 1005.9
20260506091956 76 184 0.0 0.0 0.00 0.00 0.00 95 1005.8
20260506091455 76 184 0.0 0.0 0.00 0.00 0.00 95 1006.0
20260506090956 76 184 0.0 0.0 0.00 0.00 0.00 95 1006.0
20260506090456 76 184 0.0 0.0 0.00 0.00 0.00 95 1005.9
20260506085956 76 184 0.0 0.0 0.00 0.00 0.00 95 1005.9
20260506085456 76 184 0.0 0.0 0.00 0.00 0.00 95 1006.0
20260506084956 76 184 1.0 0.0 0.00 0.00 0.00 95 1006.1
20260506084456 76 184 1.0 2.0 0.00 0.00 0.00 95 1006.1
20260506083956 76 184 1.0 2.0 0.00 0.00 0.00 95 1006.0
20260506083456 76 184 0.0 1.0 0.00 0.00 0.00 94 1006.0
20260506082956 76 184 0.0 0.0 0.00 0.00 0.00 94 1006.1
20260506082456 76 184 0.0 0.0 0.00 0.00 0.00 94 1006.2
20260506081956 76 184 0.0 0.0 0.00 0.00 0.00 94 1006.3
20260506081456 76 184 0.0 0.0 0.00 0.00 0.00 94 1006.4
20260506080956 76 184 0.0 0.0 0.00 0.00 0.00 94 1006.4
20260506080456 76 184 0.0 0.0 0.00 0.00 0.00 94 1006.4
20260506073456 77 184 0.0 0.0 0.00 0.00 0.00 94 1006.9
20260506072956 77 184 0.0 0.0 0.00 0.00 0.00 94 1006.8
20260506072456 77 184 0.0 0.0 0.00 0.00 0.00 94 1006.9
20260506071956 77 184 0.0 0.0 0.00 0.00 0.00 94 1007.0
20260506071456 77 184 0.0 0.0 0.00 0.00 0.00 94 1007.0
20260506071010 77 184 1.0 1.0 0.00 0.00 0.00 94 1007.0
20260506070456 77 184 1.0 2.0 0.00 0.00 0.00 94 1007.1
20260506062456 77 184 0.0 0.0 0.00 0.00 0.00 93 1007.0
20260506061956 77 184 0.0 0.0 0.00 0.00 0.00 93 1006.9
20260506061456 77 184 1.0 3.0 0.00 0.00 0.00 93 1006.8
20260506060956 77 184 1.0 3.0 0.00 0.00 0.00 93 1006.9
20260506060456 77 184 1.0 3.0 0.00 0.00 0.00 93 1006.9
20260506050956 77 182 0.0 0.0 0.00 0.00 0.00 93 1007.2
20260506050456 77 182 1.0 3.0 0.00 0.00 0.00 93 1007.1
20260506044956 77 178 2.0 4.0 0.00 0.00 0.00 93 1006.9
20260506044456 77 178 2.0 4.0 0.00 0.00 0.00 93 1006.9
20260506043956 77 178 2.0 4.0 0.00 0.00 0.00 93 1007.0
20260506043456 77 178 2.0 4.0 0.00 0.00 0.00 93 1006.9
20260506042956 77 178 2.0 3.0 0.00 0.00 0.00 93 1007.0
20260506042456 77 178 2.0 3.0 0.00 0.00 0.00 93 1007.0
20260506041956 77 178 2.0 4.0 0.00 0.00 0.00 93 1007.0
20260506041456 77 178 2.0 3.0 0.00 0.00 0.00 93 1006.9
20260506040956 77 178 2.0 3.0 0.00 0.00 0.00 93 1006.9
20260506040456 77 178 2.0 5.0 0.00 0.00 0.00 93 1007.0
20260506035956 77 178 2.0 4.0 0.00 0.00 0.00 93 1006.9
20260506035456 77 178 2.0 4.0 0.00 0.00 0.00 93 1006.9
20260506034956 77 178 3.0 4.0 0.00 0.00 0.00 93 1006.9
20260506034456 77 178 2.0 5.0 0.00 0.00 0.00 93 1006.9
20260506033956 77 178 2.0 3.0 0.00 0.00 0.00 93 1006.8
20260506033456 77 178 2.0 4.0 0.00 0.00 0.00 93 1006.8
20260506032956 77 178 3.0 4.0 0.00 0.00 0.00 93 1006.8
20260506032456 77 180 3.0 4.0 0.00 0.00 0.00 93 1006.7
20260506031956 77 203 2.0 3.0 0.00 0.00 0.00 93 1006.7
20260506031456 77 203 2.0 4.0 0.00 0.00 0.00 93 1006.7
20260506030956 77 203 2.0 3.0 0.00 0.00 0.00 93 1006.6
20260506030456 77 203 2.0 4.0 0.00 0.00 0.00 93 1006.5
20260506025956 77 203 1.0 3.0 0.00 0.00 0.00 93 1006.5
20260506025456 77 203 1.0 3.0 0.00 0.00 0.00 93 1006.5
20260506024956 77 203 1.0 3.0 0.00 0.00 0.00 93 1006.5
20260506024456 77 203 1.0 3.0 0.00 0.00 0.00 93 1006.5
20260506023956 77 203 1.0 4.0 0.00 0.00 0.00 93 1006.2
20260506023456 77 203 0.0 2.0 0.00 0.00 0.00 93 1006.1
20260506022956 77 203 1.0 0.0 0.00 0.00 0.00 93 1006.0
20260506022456 77 203 1.0 3.0 0.00 0.00 0.00 93 1006.0
20260506021956 77 203 1.0 2.0 0.00 0.00 0.00 92 1006.0
20260506021456 77 203 1.0 3.0 0.00 0.00 0.00 92 1005.9
20260506020956 77 203 1.0 3.0 0.00 0.00 0.00 92 1005.8
20260506020456 77 203 0.0 3.0 0.00 0.00 0.00 92 1005.7
20260506015956 77 203 0.0 0.0 0.00 0.00 0.00 92 1005.7
20260506015456 77 203 0.0 0.0 0.00 0.00 0.00 92 1005.7
20260506014956 77 203 0.0 0.0 0.00 0.00 0.00 91 1005.5
20260506014456 77 203 0.0 0.0 0.00 0.00 0.00 91 1005.6
20260506013956 77 203 1.0 0.0 0.00 0.00 0.00 91 1005.5
20260506013456 77 203 2.0 3.0 0.00 0.00 0.00 91 1005.5
20260506012956 77 203 2.0 3.0 0.00 0.00 0.00 91 1005.4
20260506012456 78 203 2.0 4.0 0.00 0.00 0.00 90 1005.3
20260506011956 78 203 3.0 4.0 0.00 0.00 0.00 90 1005.2
20260506011456 78 204 3.0 4.0 0.00 0.00 0.00 90 1005.1
20260506010956 78 204 3.0 4.0 0.00 0.00 0.00 90 1004.9
20260506010456 78 204 2.0 4.0 0.00 0.00 0.00 90 1004.9
20260506005956 78 205 2.0 3.0 0.00 0.00 0.00 90 1004.8
20260506005456 78 185 2.0 3.0 0.00 0.00 0.00 89 1004.8
20260506004956 78 186 2.0 5.0 0.00 0.00 0.00 89 1004.8
20260506004456 78 192 2.0 4.0 0.00 0.00 0.00 89 1004.8
20260506003956 78 192 2.0 4.0 0.00 0.00 0.00 89 1004.7
20260506003457 78 192 2.0 5.0 0.00 0.00 0.00 89 1004.7
20260506002956 78 194 2.0 3.0 0.00 0.00 0.00 89 1004.7
20260506002456 79 194 2.0 4.0 0.00 0.00 0.00 89 1004.7
20260506001956 79 194 3.0 5.0 0.00 0.00 0.00 89 1004.6
20260506001456 79 198 2.0 4.0 0.00 0.00 0.00 88 1004.7
20260506000956 79 184 3.0 5.0 0.00 0.00 0.00 88 1004.7
20260506000456 79 187 2.0 5.0 0.00 0.00 0.00 88 1004.7
20260505235956 79 193 2.0 3.0 0.00 0.00 0.00 88 1004.7
20260505235456 79 194 2.0 6.0 0.00 0.00 0.00 88 1004.7
20260505234956 79 163 2.0 5.0 0.00 0.00 0.00 88 1004.7
20260505234456 79 163 2.0 4.0 0.00 0.00 0.00 88 1004.7
20260505233956 79 141 2.0 2.0 0.00 0.00 0.00 88 1004.8
20260505233456 79 141 2.0 4.0 0.00 0.00 0.00 87 1004.8
20260505232956 80 136 2.0 5.0 0.00 0.00 0.00 88 1004.8
20260505232457 80 198 3.0 4.0 0.00 0.00 0.00 87 1004.8
20260505231957 80 198 3.0 5.0 0.00 0.00 0.00 87 1004.8
20260505231457 80 199 2.0 6.0 0.00 0.00 0.00 87 1004.8
20260505230957 80 208 3.0 5.0 0.00 0.00 0.00 86 1004.9
20260505230457 80 208 3.0 5.0 0.00 0.00 0.00 86 1004.8
20260505225957 81 210 3.0 5.0 0.00 0.00 0.00 86 1004.8
20260505225457 81 213 2.0 6.0 0.00 0.00 0.00 84 1004.8
20260505224957 81 214 3.0 5.0 0.00 0.00 0.00 84 1004.7
20260505224457 81 164 3.0 6.0 0.00 0.00 0.00 84 1004.6
20260505223957 81 164 2.0 6.0 0.00 0.00 0.00 84 1004.7
20260505223457 82 163 3.0 7.0 0.00 0.00 0.00 83 1004.8
20260505222957 82 206 3.0 5.0 0.00 0.00 0.00 83 1004.9
20260505222457 82 191 3.0 5.0 0.00 0.00 0.00 83 1004.9
20260505221957 81 211 3.0 6.0 0.00 0.00 0.00 85 1004.8
20260505221457 81 231 2.0 7.0 0.00 0.00 0.00 85 1004.8
20260505220957 81 196 2.0 4.0 0.00 0.00 0.00 86 1004.8
20260505220457 81 200 2.0 5.0 0.00 0.00 0.00 86 1004.9
20260505215957 81 229 3.0 6.0 0.00 0.00 0.00 86 1005.0
20260505215457 80 168 3.0 7.0 0.00 0.00 0.00 86 1005.2
20260505214957 80 177 3.0 6.0 0.00 0.00 0.00 86 1005.2
20260505214457 80 175 2.0 5.0 0.00 0.00 0.00 86 1005.3
20260505213957 80 174 2.0 5.0 0.00 0.00 0.00 86 1005.4
20260505213457 81 174 3.0 5.0 0.00 0.00 0.00 85 1005.4
20260505212957 81 171 3.0 6.0 0.00 0.00 0.00 84 1005.4
20260505212457 81 146 3.0 5.0 0.00 0.00 0.00 84 1005.5
20260505211957 82 117 3.0 6.0 0.00 0.00 0.00 84 1005.5
20260505211457 82 186 3.0 6.0 0.00 0.00 0.00 85 1005.6
20260505210957 81 192 4.0 9.0 0.00 0.00 0.00 85 1005.6
20260505210457 81 157 4.0 8.0 0.00 0.00 0.00 85 1005.5
20260505205957 81 168 3.0 8.0 0.00 0.00 0.00 85 1005.6
20260505205457 81 216 2.0 4.0 0.00 0.00 0.00 86 1005.9
20260505204957 81 216 2.0 5.0 0.00 0.00 0.00 85 1006.0
20260505204457 81 216 2.0 4.0 0.00 0.00 0.00 85 1006.1
20260505203957 81 218 3.0 5.0 0.00 0.00 0.00 85 1006.1
20260505203457 81 223 3.0 5.0 0.00 0.00 0.00 85 1006.3
20260505202957 81 171 2.0 6.0 0.00 0.00 0.00 86 1006.1
20260505202457 81 202 2.0 5.0 0.00 0.00 0.00 86 1006.3
20260505201957 81 202 2.0 5.0 0.00 0.00 0.00 86 1006.3
20260505201457 81 202 2.0 6.0 0.00 0.00 0.00 86 1006.4
20260505200957 81 203 2.0 5.0 0.00 0.00 0.00 85 1006.4
20260505200457 81 200 2.0 5.0 0.00 0.00 0.00 85 1006.4
20260505195957 81 196 2.0 5.0 0.00 0.00 0.00 85 1006.4
20260505195457 82 199 2.0 5.0 0.00 0.00 0.00 84 1006.4
20260505194957 82 211 2.0 3.0 0.00 0.00 0.00 86 1006.5
20260505194457 81 211 2.0 5.0 0.00 0.00 0.00 86 1006.5
20260505193957 81 211 2.0 4.0 0.00 0.00 0.00 85 1006.4
20260505193457 81 212 2.0 5.0 0.00 0.00 0.00 85 1006.4
20260505192957 81 214 2.0 4.0 0.00 0.00 0.00 85 1006.4
20260505192457 81 222 2.0 6.0 0.00 0.00 0.00 85 1006.4
20260505191957 81 221 2.0 6.0 0.00 0.00 0.00 86 1006.5
20260505191457 81 190 2.0 5.0 0.00 0.00 0.00 86 1006.5
20260505190957 81 208 2.0 4.0 0.00 0.00 0.00 88 1006.6
20260505190457 80 208 2.0 5.0 0.00 0.00 0.00 88 1006.6
20260505185957 80 209 2.0 5.0 0.00 0.00 0.00 88 1006.6
20260505185457 80 202 2.0 5.0 0.00 0.00 0.00 87 1006.5
20260505184957 80 202 2.0 5.0 0.00 0.00 0.00 87 1006.7
20260505184457 80 207 2.0 3.0 0.00 0.00 0.00 87 1006.8
20260505183957 80 207 2.0 4.0 0.00 0.00 0.00 87 1006.9
20260505183457 80 207 2.0 6.0 0.00 0.00 0.00 88 1007.0
20260505182957 80 207 2.0 5.0 0.00 0.00 0.00 88 1007.0
20260505182457 80 213 2.0 3.0 0.00 0.00 0.00 88 1007.2
20260505181957 80 213 2.0 5.0 0.00 0.00 0.00 87 1007.0
20260505181457 80 197 2.0 4.0 0.00 0.00 0.00 87 1007.1
20260505180957 80 198 2.0 5.0 0.00 0.00 0.00 87 1007.1
20260505180457 80 196 2.0 5.0 0.00 0.00 0.00 87 1007.1
20260505175957 80 195 2.0 5.0 0.00 0.00 0.00 87 1007.0
20260505175457 80 196 2.0 5.0 0.00 0.00 0.00 86 1007.1
20260505174957 80 196 2.0 5.0 0.00 0.00 0.00 86 1007.1
20260505174457 80 196 2.0 3.0 0.00 0.00 0.00 88 1007.0
20260505173957 80 196 2.0 4.0 0.00 0.00 0.00 88 1007.2